GW4850 Weather Reports


time (UTC)temp
C
wind
direction
speed
KPH
gust
KPH
rain 1hr
cm
rain 24hr
cm
rain mn
cm
humidity
%
barometer
mb
20260505230435 24 212 0.0 1.6 0.00 0.00 0.00 39 1009.4
20260505225931 25 230 1.6 4.8 0.00 0.00 0.00 39 1009.3
20260505225428 25 258 1.6 3.2 0.00 0.00 0.00 38 1009.3
20260505224923 25 265 0.0 3.2 0.00 0.00 0.00 39 1009.3
20260505224421 26 209 3.2 6.4 0.00 0.00 0.00 35 1009.4
20260505223918 25 204 3.2 6.4 0.00 0.00 0.00 34 1009.4
20260505223415 25 219 3.2 4.8 0.00 0.00 0.00 36 1009.3
20260505222911 25 257 6.4 11.3 0.00 0.00 0.00 36 1009.4
20260505222407 25 278 1.6 9.7 0.00 0.00 0.00 36 1009.3
20260505221904 26 250 3.2 6.4 0.00 0.00 0.00 36 1009.5
20260505221401 26 268 1.6 4.8 0.00 0.00 0.00 33 1009.5
20260505220858 26 268 8.0 11.3 0.00 0.00 0.00 33 1009.5
20260505220355 26 249 4.8 11.3 0.00 0.00 0.00 36 1009.4
20260505215853 26 262 4.8 4.8 0.00 0.00 0.00 35 1009.3
20260505215351 26 264 1.6 4.8 0.00 0.00 0.00 34 1009.4
20260505214849 26 276 1.6 9.7 0.00 0.00 0.00 32 1009.1
20260505214346 26 238 6.4 14.5 0.00 0.00 0.00 34 1009.2
20260505213843 26 229 8.0 12.9 0.00 0.00 0.00 33 1009.0
20260505213341 26 198 4.8 11.3 0.00 0.00 0.00 33 1008.9
20260505212836 26 255 3.2 4.8 0.00 0.00 0.00 32 1009.0
20260505212333 26 286 3.2 14.5 0.00 0.00 0.00 30 1008.8
20260505211829 26 258 8.0 16.1 0.00 0.00 0.00 30 1008.9
20260505211328 27 269 8.0 12.9 0.00 0.00 0.00 31 1009.0
20260505210824 27 257 6.4 9.7 0.00 0.00 0.00 31 1009.2
20260505210321 27 248 8.0 20.9 0.00 0.00 0.00 30 1009.1
20260505205817 27 242 6.4 12.9 0.00 0.00 0.00 31 1009.1
20260505205316 27 273 8.0 17.7 0.00 0.00 0.00 29 1009.2
20260505204812 27 245 12.9 16.1 0.00 0.00 0.00 29 1009.2
20260505204310 27 280 6.4 14.5 0.00 0.00 0.00 29 1009.2
20260505203807 27 244 8.0 17.7 0.00 0.00 0.00 29 1009.2
20260505203304 27 230 6.4 9.7 0.00 0.00 0.00 29 1008.9
20260505202800 27 269 6.4 9.7 0.00 0.00 0.00 30 1008.9
20260505202256 27 298 6.4 12.9 0.00 0.00 0.00 29 1008.8
20260505201753 27 167 6.4 9.7 0.00 0.00 0.00 30 1008.9
20260505201250 27 257 17.7 20.9 0.00 0.00 0.00 29 1008.9
20260505200749 28 246 6.4 12.9 0.00 0.00 0.00 28 1009.2
20260505200246 28 272 9.7 14.5 0.00 0.00 0.00 29 1008.9
20260505195741 29 245 6.4 11.3 0.00 0.00 0.00 25 1009.0
20260505195239 28 173 6.4 11.3 0.00 0.00 0.00 28 1008.9
20260505194736 28 281 6.4 11.3 0.00 0.00 0.00 32 1008.9
20260505194232 28 274 8.0 16.1 0.00 0.00 0.00 30 1009.1
20260505193728 28 248 9.7 11.3 0.00 0.00 0.00 30 1009.3
20260505193225 28 181 9.7 17.7 0.00 0.00 0.00 26 1009.1
20260505192724 28 234 6.4 9.7 0.00 0.00 0.00 26 1009.2
20260505192221 28 156 9.7 12.9 0.00 0.00 0.00 27 1009.4
20260505191719 28 233 6.4 22.5 0.00 0.00 0.00 27 1009.3
20260505191218 28 172 14.5 16.1 0.00 0.00 0.00 26 1009.5
20260505190713 29 134 14.5 17.7 0.00 0.00 0.00 25 1009.5
20260505190213 28 240 12.9 22.5 0.00 0.00 0.00 30 1009.3
20260505185710 29 270 14.5 20.9 0.00 0.00 0.00 29 1009.9
20260505185206 28 261 4.8 11.3 0.00 0.00 0.00 29 1009.5
20260505184702 27 202 6.4 16.1 0.00 0.00 0.00 31 1009.7
20260505184200 28 205 19.3 22.5 0.00 0.00 0.00 29 1010.0
20260505183656 28 221 9.7 16.1 0.00 0.00 0.00 31 1010.1
20260505183154 28 248 3.2 6.4 0.00 0.00 0.00 32 1010.2
20260505182650 27 257 8.0 12.9 0.00 0.00 0.00 30 1010.1
20260505182148 27 179 9.7 12.9 0.00 0.00 0.00 31 1010.3
20260505181644 27 177 4.8 11.3 0.00 0.00 0.00 33 1010.4
20260505181141 27 278 6.4 6.4 0.00 0.00 0.00 31 1010.4
20260505180637 27 250 4.8 12.9 0.00 0.00 0.00 32 1010.6
20260505180135 27 165 12.9 16.1 0.00 0.00 0.00 32 1010.5
20260505175631 27 210 17.7 27.4 0.00 0.00 0.00 32 1010.4
20260505175127 28 134 4.8 11.3 0.00 0.00 0.00 30 1010.6
20260505174624 27 179 12.9 16.1 0.00 0.00 0.00 30 1010.8
20260505174120 28 132 6.4 20.9 0.00 0.00 0.00 34 1010.8
20260505173617 27 210 6.4 14.5 0.00 0.00 0.00 34 1010.8
20260505173114 27 169 6.4 12.9 0.00 0.00 0.00 37 1010.8
20260505172611 26 240 6.4 12.9 0.00 0.00 0.00 36 1011.1
20260505172108 27 232 12.9 16.1 0.00 0.00 0.00 33 1011.2
20260505171602 26 256 9.7 17.7 0.00 0.00 0.00 34 1011.0
20260505171100 27 218 6.4 11.3 0.00 0.00 0.00 32 1011.1
20260505170556 27 272 12.9 16.1 0.00 0.00 0.00 34 1011.2
20260505170053 26 244 11.3 16.1 0.00 0.00 0.00 33 1011.1
20260505165548 27 216 8.0 17.7 0.00 0.00 0.00 33 1011.2
20260505165044 27 207 14.5 17.7 0.00 0.00 0.00 33 1011.4
20260505164540 27 220 11.3 25.7 0.00 0.00 0.00 33 1011.5
20260505164038 26 261 14.5 17.7 0.00 0.00 0.00 34 1011.8
20260505163537 26 270 4.8 14.5 0.00 0.00 0.00 39 1011.7
20260505163033 26 217 17.7 24.1 0.00 0.00 0.00 35 1012.0
20260505162526 25 199 14.5 25.7 0.00 0.00 0.00 35 1012.0
20260505162023 26 150 8.0 16.1 0.00 0.00 0.00 35 1012.2
20260505161520 26 258 8.0 14.5 0.00 0.00 0.00 36 1012.4
20260505161017 26 304 14.5 22.5 0.00 0.00 0.00 38 1012.1
20260505160515 26 204 11.3 16.1 0.00 0.00 0.00 36 1012.2
20260505152951 25 250 11.3 20.9 0.00 0.00 0.00 38 1012.1
20260505152449 25 276 12.9 17.7 0.00 0.00 0.00 37 1012.3
20260505151943 25 237 9.7 24.1 0.00 0.00 0.00 36 1012.4
20260505151439 25 141 22.5 29.0 0.00 0.00 0.00 37 1012.0
20260505150937 24 212 11.3 17.7 0.00 0.00 0.00 39 1012.2
20260505150433 24 263 16.1 20.9 0.00 0.00 0.00 40 1012.3